Back to catalog

CZ-6A DEB

AlivePO
NORAD 61134·DEBRIS·🇨🇳 China

Launched Aug 6, 2024 from Taiyuan Satellite Launch Center

Loading…

Next Passes (next 24 hours)

TLE

FreshSource: Space-Track

Epoch: Sep 14, 2026, 00:25 UTC

1 61134U 24140QC  26257.01767532  .00002430  00000-0  12618-2 0  9998
2 61134  88.9814 264.7647 0108200 328.4618  31.0110 14.11521132105962

Track CZ-6A DEB in real time with AllMySat

Download on the App Store